Flag for Russia Weather past 2 weeks in Chelyabinsk, Russia

Now
72 °F

Scattered clouds.


Feels Like: 76 °F
Forecast: 61 / 80 °F
Wind: 6 mph from West

Location: Chelyabinsk-Balandino

Current Time: Jun 3, 2015 at 6:58:37 PM

Latest Report: Jun 3, 2015 at 6:30 PM


Visibility: N/A

Pressure: 29.95 "Hg

Humidity: 61%

Dew point: 57 °F

Location of ChelyabinskLocation

Historic Weather in Chelyabinsk — Graph

°F

Chelyabinsk temperature yesterday

Maximum temperature yesterday: 86 °F (at 4:00 PM)
Minimum temperature yesterday: 59 °F (at 5:00 AM)
Average temperature yesterday: 74 °F

Past Weeks' High & Low Weather Summary

 TemperatureHumidityPressure
High88 °F (May 31, 2:00 PM)100% (May 20, 4:00 AM)30.15 "Hg (May 20, 4:00 AM)
Low36 °F (May 23, 2:30 AM)8% (May 23, 2:00 PM)29.42 "Hg (May 20, 1:00 AM)
Average64 °F58%29.94 "Hg
* Reported May 19 5:00 PM — Jun 3 5:00 PM, Chelyabinsk, Weather by CustomWeather, © 2015

Note: Actual official high and low records may vary slightly from our data, if they occured in-between our weather recording intervals... More about our weather records

Advertising

Chelyabinsk weather history for previous 24 hours

 ConditionsComfort  
Time TempWeatherWind HumidityBarometerVisibility
5:00 PM
Wed, Jun 3
75 °FScattered clouds.17 mph54%29.98 "HgN/A
4:30 PM73 °FScattered clouds.13 mph57%29.98 "HgN/A
4:00 PM77 °FScattered clouds.8 mph42%29.98 "HgN/A
3:30 PM79 °FScattered clouds.10 mph39%29.98 "HgN/A
3:00 PM81 °FScattered clouds.8 mph34%29.98 "HgN/A
2:30 PM81 °FScattered clouds.13 mph32%29.98 "HgN/A
2:00 PM82 °FPassing clouds.10 mph32%29.98 "HgN/A
1:30 PM81 °FPassing clouds.8 mph32%29.98 "HgN/A
1:00 PM81 °FPassing clouds.6 mph34%30.01 "HgN/A
12:30 PM81 °FPassing clouds.6 mph37%30.01 "HgN/A
12:00 PM81 °FPassing clouds.6 mph34%30.01 "HgN/A
11:30 AM79 °FPassing clouds.3 mph39%30.01 "HgN/A
11:00 AM79 °FScattered clouds.8 mph48%30.01 "HgN/A
10:30 AM79 °FScattered clouds.6 mph51%30.01 "HgN/A
10:00 AM77 °FScattered clouds.10 mph47%30.04 "HgN/A
9:30 AM79 °FPassing clouds.6 mph51%30.04 "HgN/A
9:00 AM77 °FPassing clouds.6 mph51%30.04 "HgN/A
8:30 AM75 °FPassing clouds.6 mph57%30.01 "HgN/A
8:00 AM73 °FPassing clouds.6 mph61%30.01 "HgN/A
7:30 AM72 °FPassing clouds.6 mph65%30.01 "HgN/A
7:00 AM70 °FPassing clouds.6 mph69%30.01 "HgN/A
6:30 AM68 °FFog.6 mph73%30.04 "Hg3 mi
6:00 AM68 °FFog.8 mph78%30.04 "Hg3 mi
5:30 AM64 °FFog.6 mph88%30.04 "Hg3 mi
5:00 AM63 °FFog.6 mph88%30.01 "Hg3 mi
4:30 AM63 °FFog.3 mph88%30.01 "Hg3 mi
4:00 AM63 °FFog.6 mph88%30.01 "Hg3 mi
3:30 AM64 °FPassing clouds.3 mph83%30.04 "Hg3 mi
3:00 AM64 °FPassing clouds.3 mph78%30.01 "Hg3 mi
2:30 AM68 °FPassing clouds.3 mph78%30.04 "Hg3 mi
2:00 AM66 °FPassing clouds.3 mph73%30.04 "Hg3 mi
1:30 AM66 °FPassing clouds.6 mph78%30.04 "HgN/A
1:00 AM66 °FPassing clouds.3 mph78%30.04 "HgN/A
12:30 AM66 °FPassing clouds.1 mph78%30.04 "HgN/A
12:00 AM68 °FPassing clouds.3 mph73%30.04 "HgN/A
11:30 PM
Tue, Jun 2
70 °FPassing clouds.3 mph69%30.04 "HgN/A
11:00 PM72 °FScattered clouds.3 mph61%30.04 "HgN/A
10:30 PM75 °FThunderstorms. Scattered clouds.3 mph47%30.07 "HgN/A
10:00 PM75 °FPassing clouds.3 mph50%30.07 "HgN/A
9:30 PM77 °FPassing clouds.3 mph47%30.07 "HgN/A
9:00 PM77 °FPassing clouds.3 mph51%30.07 "HgN/A
8:30 PM79 °FPassing clouds.3 mph51%30.07 "HgN/A
8:00 PM79 °FPassing clouds.3 mph48%30.04 "HgN/A
7:30 PM81 °FPassing clouds.3 mph42%30.04 "HgN/A
7:00 PM82 °FPassing clouds.6 mph40%30.04 "HgN/A
6:30 PM84 °FSunny.6 mph31%30.04 "Hg10 mi
6:00 PM86 °FSunny.6 mph29%30.07 "Hg10 mi
Weather by CustomWeather, © 2015

See weather overviewHow to use our weather pages